Doylestown, PA

11:26 AM EDT on April 27, 2017 (GMT -0400)
Doylestown

Weather History for KDYL - October, 2011

Change the Weather History Date:

Tuesday, October 18, 2011

  Actual Average (KTTN) Record (KTTN)
Temperature  
Mean Temperature 57 °F -  
Max Temperature 70 °F 60 °F 83 °F (2016)
Min Temperature 45 °F 41 °F 28 °F (1985)
Degree Days  
Heating Degree Days 8    
Growing Degree Days 7 (Base 50)    
Moisture  
Dew Point 42 °F    
Average Humidity 65    
Maximum Humidity 97    
Minimum Humidity 26    
Precipitation  
Precipitation 0.00 in - - ()
Sea Level Pressure  
Sea Level Pressure 29.85 in    
Wind  
Wind Speed 1 mph (NNW)    
Max Wind Speed 7 mph    
Max Gust Speed -    
Visibility 10 miles    
Events      
Averages and records for this station are not official NWS values.
T = Trace of Precipitation, MM = Missing Value Source: NWS Daily Summary

Daily Weather History Graph

Daily Weather History Graph

Search for Another Location

Airport or City:

Trip Planner

Search our weather history database for the weather conditions in past years. The results will help you decide how hot, cold, wet, or windy it might be!

Date:

Astronomy

Oct. 18, 2011 Rise Set
Actual Time 7:14 AM EDT 6:16 PM EDT
Civil Twilight 6:46 AM EDT 6:44 PM EDT
Nautical Twilight 6:15 AM EDT 7:15 PM EDT
Astronomical Twilight 5:43 AM EDT 7:47 PM EDT
Moon 10:54 PM EDT (10/18) 1:03 PM EDT (10/18)
Length of Visible Light 11h 57m
Length of Day
11h 02m
Waning Gibbous, 65% of the Moon is Illuminated
Oct 18
Waning Gibbous
Oct 19
Last Quarter
Oct 26
New
Nov 2
First Quarter
Nov 10
Full

Hourly Weather History & Observations

Time (EDT) Temp. Windchill Dew Point Humidity Pressure Visibility Wind Dir Wind Speed Gust Speed Precip Events Conditions
12:54 AM 50.0 °F - 46.0 °F 86% 29.81 in 10.0 mi Calm Calm - N/A   Clear
1:54 AM 48.0 °F - 45.0 °F 89% 29.81 in 10.0 mi Calm Calm - N/A   Clear
2:54 AM 48.0 °F - 45.0 °F 89% 29.81 in 10.0 mi Calm Calm - N/A   Clear
3:54 AM 46.0 °F 43.9 °F 44.1 °F 93% 29.82 in 10.0 mi South 4.6 mph - N/A   Clear
4:54 AM 45.0 °F - 44.1 °F 97% 29.84 in 7.0 mi Calm Calm - N/A   Clear
5:54 AM 46.0 °F - 44.1 °F 93% 29.85 in 9.0 mi Calm Calm - N/A   Clear
6:54 AM 48.0 °F - 46.0 °F 93% 29.86 in 8.0 mi Calm Calm - N/A   Overcast
7:54 AM 50.0 °F - 46.9 °F 89% 29.87 in 8.0 mi Calm Calm - N/A   Overcast
8:54 AM 52.0 °F - 48.0 °F 86% 29.88 in 9.0 mi Calm Calm - N/A   Scattered Clouds
10:54 AM 63.0 °F - 39.9 °F 43% 29.88 in 10.0 mi Calm Calm - N/A   Clear
11:54 AM 64.9 °F - 32.0 °F 29% 29.88 in 10.0 mi WSW 3.5 mph - N/A   Clear
12:54 PM 66.0 °F - 37.0 °F 34% 29.86 in 10.0 mi Variable 5.8 mph - N/A   Clear
1:54 PM 68.0 °F - 32.0 °F 26% 29.84 in 10.0 mi SSW 6.9 mph - N/A   Clear
2:54 PM 69.1 °F - 37.0 °F 31% 29.83 in 10.0 mi Variable 3.5 mph - N/A   Clear
3:54 PM 68.0 °F - 37.0 °F 32% 29.83 in 10.0 mi SSE 3.5 mph - N/A   Partly Cloudy
4:54 PM 66.9 °F - 37.9 °F 34% 29.83 in 10.0 mi Calm Calm - N/A   Clear
5:54 PM 63.0 °F - 41.0 °F 45% 29.83 in 10.0 mi Calm Calm - N/A   Scattered Clouds
6:54 PM 60.1 °F - 41.0 °F 49% 29.84 in 10.0 mi Calm Calm - N/A   Clear
7:54 PM 57.0 °F - 42.1 °F 57% 29.85 in 10.0 mi Calm Calm - N/A   Clear
8:54 PM 57.0 °F - 43.0 °F 59% 29.88 in 10.0 mi Variable 3.5 mph - N/A   Clear
9:54 PM 55.0 °F - 44.1 °F 67% 29.87 in 10.0 mi Calm Calm - N/A   Clear
10:54 PM 54.0 °F - 46.0 °F 75% 29.86 in 10.0 mi North 3.5 mph - N/A   Clear
11:16 PM 53.6 °F - 46.4 °F 77% 29.87 in 10.0 mi NNE 3.5 mph - N/A   Mostly Cloudy
11:41 PM 53.6 °F - 46.4 °F 77% 29.87 in 10.0 mi North 3.5 mph - N/A   Mostly Cloudy
11:50 PM 53.6 °F - 46.4 °F 77% 29.86 in 10.0 mi North 3.5 mph - N/A   Mostly Cloudy